Cloud_Cover
22 11 60 99 94 100 100 48 97 71 88 100 76 99 32 100 100 74 22 94 100 100 73 61 50 38 53 88 84 28 21 54 72 100 5 3 84 7 5 7 0 0 0 0 0 0 0 0 0
95 15 54 46 100 100 100 89 100 98 100 24 2 53 54 7 5 35 80 46 88 78 84 42 84 57 68 27 6 12 87 18 64 5 9 8 85 5 2 4 6 0 2 0 0 5 0 0 0
5 6 98 98 85 100 24 100 97 47 5 7 26 66 8 5 5 5 6 34 67 100 81 88 54 85 48 16 5 48 100 73 44 77 5 34 100 7 9 0 0 0 0 0 2 4 2 0 0
63 99 73 100 90 100 97 22 64 55 76 56 43 0 5 5 25 14 28 26 30 86 93 89 96 21 0 1 11 70 5 73 75 100 5 16 23 1 0 0 0 0 2 0 0 0 0 0 0
10 53 100 100 99 60 85 96 100 100 86 84 64 0 1 26 10 20 4 6 35 90 90 14 13 8 0 2 1 6 0 52 100 50 16 73 28 1 0 0 0 0 0 0 0 0 0 0 0
50 100 100 100 100 100 96 98 100 83 82 18 4 1 20 26 3 4 5 13 78 97 70 2 0 0 2 0 11 9 8 7 36 17 80 98 5 0 0 0 0 0 0 0 0 0 0 0 2
100 100 98 84 100 100 98 49 96 34 6 23 0 6 10 6 2 5 5 22 50 14 3 19 0 0 0 3 0 0 0 12 4 0 0 0 0 0 0 0 0 0 0 0 0 0 0 0 4
96 100 91 71 100 99 6 32 0 48 7 0 0 1 4 0 0 5 5 5 5 5 7 0 33 61 32 0 0 0 0 0 0 0 0 0 0 0 0 0 0 0 1 0 5 0 5 4 0
89 99 40 76 99 64 2 1 0 0 0 0 3 0 0 0 0 2 3 4 5 5 0 0 29 26 14 0 0 0 0 0 0 0 0 8 77 79 5 1 5 5 3 4 2 3 0 5 43
99 66 35 90 100 86 76 70 0 0 0 0 0 0 0 0 0 4 1 1 5 5 0 0 0 0 0 0 0 0 0 0 0 2 37 55 19 5 0 2 5 5 3 5 5 5 4 2 26
67 92 100 86 99 56 72 55 0 1 20 4 0 0 0 0 0 0 0 1 5 3 0 0 0 0 0 0 0 0 0 0 1 61 32 26 29 0 16 11 5 5 5 21 25 8 82 7 5
99 51 92 84 86 56 90 0 32 76 58 1 0 0 0 0 0 0 0 0 0 0 0 0 0 0 0 0 0 0 0 28 93 19 9 5 81 8 25 83 7 9 52 12 5 69 62 7 10
100 37 66 49 42 10 0 0 0 5 4 5 5 5 1 1 0 0 2 0 0 0 0 0 0 1 0 5 6 0 5 15 32 2 0 5 29 27 70 30 77 24 15 40 22 17 100 96 16
16 84 25 4 1 0 3 0 19 5 5 5 5 5 5 8 12 3 0 0 1 4 0 0 0 0 0 18 0 1 3 13 20 17 52 39 5 32 100 72 95 92 43 68 29 5 9 81 5
37 60 41 4 2 0 11 2 57 5 4 5 5 5 5 16 9 7 0 0 5 3 5 0 0 0 0 16 0 5 1 4 5 5 5 5 6 16 100 100 100 100 100 93 36 5 10 5 8
75 73 100 5 6 4 50 100 4 0 4 5 2 0 3 4 58 5 0 5 0 3 5 4 0 0 0 0 0 1 6 75 14 2 5 3 5 5 12 22 94 100 100 100 100 98 87 100 92
100 100 86 9 9 15 35 94 5 5 54 28 11 8 5 6 62 5 10 4 2 3 0 2 2 0 0 0 0 0 7 1 62 13 1 3 4 4 3 4 27 13 90 100 100 72 51 94 96
94 100 100 100 35 13 37 33 100 13 12 16 48 42 35 17 24 35 73 18 37 5 2 0 0 1 0 4 0 0 0 0 10 52 66 48 3 4 4 7 13 53 46 25 98 100 54 27 32
100 51 46 98 25 14 59 100 100 54 80 99 72 5 5 73 34 23 99 88 86 19 5 5 0 0 0 5 4 4 1 2 3 24 28 75 33 19 74 5 6 27 84 70 72 100 100 72 51
93 98 86 12 11 6 42 100 100 91 5 66 12 11 6 11 27 58 46 70 98 64 6 4 5 5 5 35 20 3 0 2 0 30 100 69 100 100 94 32 10 21 39 40 99 92 100 100 100
91 36 88 84 42 5 77 32 30 94 5 5 29 19 76 73 72 39 76 60 96 100 26 1 1 5 5 5 7 5 0 0 2 44 92 96 100 100 100 99 82 6 5 60 100 79 100 100 100
100 100 100 100 28 90 100 100 54 7 91 85 33 29 47 70 62 64 16 37 73 84 93 17 6 0 1 0 8 96 93 63 77 96 100 100 100 100 100 40 100 65 39 85 100 100 100 100 100
100 59 99 100 93 57 52 21 100 100 26 84 73 100 100 100 100 98 71 8 23 99 99 93 0 7 4 0 6 81 100 100 100 100 100 100 100 90 100 95 43 30 63 61 95 25 23 36 55
6 81 96 100 66 80 64 90 81 100 100 100 100 100 99 100 100 100 100 76 28 24 60 100 57 4 20 29 78 100 100 100 100 100 100 100 100 100 100 80 64 14 43 60 22 5 5 20 32
2 11 91 100 37 100 100 90 100 68 87 68 30 99 100 100 100 100 100 100 99 100 100 100 90 46 85 100 83 100 90 82 89 84 100 100 100 100 100 100 100 100 72 97 100 100 90 94 88
86 44 92 80 79 100 100 100 100 100 2 5 24 22 9 94 100 100 100 100 100 100 100 54 100 71 61 94 81 93 99 62 51 56 86 100 100 100 100 100 100 100 100 100 100 100 100 100 100
5 29 87 99 82 21 60 100 100 85 0 0 0 0 54 100 56 23 98 98 100 100 100 100 100 100 100 100 100 100 100 100 96 100 100 100 100 100 100 100 100 100 100 100 100 100 100 100 100
0 0 11 94 74 30 17 34 74 100 86 5 0 0 0 0 3 58 89 100 92 94 94 100 100 100 100 100 100 100 100 100 100 100 100 100 100 100 100 100 100 100 100 100 100 100 100 100 100
0 0 0 1 30 40 32 100 90 98 49 14 0 12 49 62 98 56 90 100 100 100 97 52 74 97 100 100 100 100 100 100 100 100 100 100 100 100 100 100 100 100 100 100 100 100 100 100 100
0 0 1 5 22 34 16 79 0 0 0 0 17 47 75 100 100 100 99 100 100 100 99 100 76 99 95 68 97 98 100 100 100 100 100 100 100 100 100 100 100 100 100 100 100 100 100 100 100